Albert Lea, MN

6:48 PM CDT on May 26, 2017 (GMT -0500)
Albert Lea Municipal

Weather History for KAEL - February, 2012

Change the Weather History Date:

Wednesday, February 29, 2012

  Actual Average Record
Temperature  
Mean Temperature 34 °F -  
Max Temperature 37 °F 28 °F 48 °F (2004)
Min Temperature 30 °F 15 °F 23 °F (2008)
Degree Days  
Heating Degree Days 32    
Moisture  
Dew Point 33 °F    
Average Humidity 100    
Maximum Humidity 100    
Minimum Humidity 100    
Precipitation  
Precipitation 0.27 in - - ()
Sea Level Pressure  
Sea Level Pressure 29.28 in    
Wind  
Wind Speed 9 mph (SSW)    
Max Wind Speed 17 mph    
Max Gust Speed 26 mph    
Visibility 4 miles    
Events Rain , Snow , Thunderstorm    
Averages and records for this station are not official NWS values.
T = Trace of Precipitation, MM = Missing Value Source: NWS Daily Summary

Daily Weather History Graph

Daily Weather History Graph

Search for Another Location

Airport or City:

Trip Planner

Search our weather history database for the weather conditions in past years. The results will help you decide how hot, cold, wet, or windy it might be!

Date:

Astronomy

Feb. 29, 2012 Rise Set
Actual Time 6:50 AM CST 6:01 PM CST
Civil Twilight 6:22 AM CST 6:30 PM CST
Nautical Twilight 5:48 AM CST 7:03 PM CST
Astronomical Twilight 5:15 AM CST 7:36 PM CST
Moon 10:27 AM CST (2/29) 1:03 AM CST (2/29)
Length of Visible Light 12h 08m
Length of Day
11h 10m
Waxing Crescent, 47% of the Moon is Illuminated
Feb 29
Waxing Crescent
Feb 29
First Quarter
Mar 8
Full
Mar 14
Last Quarter
Mar 22
New

Hourly Weather History & Observations

Time (CST) Temp. Windchill Dew Point Humidity Pressure Visibility Wind Dir Wind Speed Gust Speed Precip Events Conditions
12:08 AM 32.0 °F 27.5 °F 32.0 °F 100% 29.47 in 2.0 mi ESE 4.6 mph - 0.15 in   Overcast
12:28 AM 33.8 °F 28.6 °F 33.8 °F 100% 29.44 in 2.5 mi East 5.8 mph - 0.17 in   Overcast
12:45 AM 32.0 °F 26.4 °F 32.0 °F 100% 29.42 in 2.0 mi East 5.8 mph - 0.19 in   Overcast
12:48 AM 32.0 °F 26.4 °F 32.0 °F 100% 29.42 in 2.5 mi East 5.8 mph - N/A   Overcast
1:08 AM 32.0 °F 26.4 °F 32.0 °F 100% 29.39 in 2.0 mi East 5.8 mph - 0.03 in   Overcast
1:28 AM 33.8 °F 27.0 °F 33.8 °F 100% 29.36 in 3.0 mi East 8.1 mph - 0.06 in   Overcast
1:45 AM 33.8 °F 26.4 °F 33.8 °F 100% 29.34 in 2.5 mi ESE 9.2 mph - 0.09 in   Overcast
1:48 AM 33.8 °F 27.0 °F 33.8 °F 100% 29.34 in 2.5 mi East 8.1 mph - 0.01 in   Overcast
2:09 AM 33.8 °F 24.8 °F 33.8 °F 100% 29.30 in 2.5 mi East 12.7 mph 18.4 mph 0.06 in   Overcast
2:28 AM 33.8 °F 24.8 °F 33.8 °F 100% 29.29 in 2.5 mi ESE 12.7 mph 16.1 mph 0.10 in   Overcast
2:45 AM 33.8 °F 23.2 °F 33.8 °F 100% 29.27 in 2.5 mi ESE 17.3 mph 26.5 mph 0.13 in Rain , Thunderstorm Rain
2:48 AM 33.8 °F 23.5 °F 33.8 °F 100% 29.27 in 4.0 mi ESE 16.1 mph 26.5 mph N/A Rain Rain
3:09 AM 33.8 °F 23.5 °F 33.8 °F 100% 29.25 in 4.0 mi East 16.1 mph 21.9 mph 0.01 in Rain Light Rain
3:28 AM 33.8 °F 24.8 °F 33.8 °F 100% 29.24 in 3.0 mi East 12.7 mph 20.7 mph 0.05 in Rain Light Rain
3:45 AM 33.8 °F 23.9 °F 33.8 °F 100% 29.22 in 5.0 mi East 15.0 mph - 0.05 in   Light Drizzle
3:48 AM 33.8 °F 23.9 °F 33.8 °F 100% 29.22 in 5.0 mi East 15.0 mph - N/A   Light Drizzle
4:07 AM 33.8 °F 24.8 °F 33.8 °F 100% 29.21 in 5.0 mi ESE 12.7 mph - N/A   Overcast
4:28 AM 35.6 °F 29.9 °F 35.6 °F 100% 29.20 in 4.0 mi SE 6.9 mph - N/A   Light Drizzle
4:48 AM 35.6 °F 28.6 °F 35.6 °F 100% 29.19 in 3.0 mi SSE 9.2 mph - N/A   Drizzle
5:07 AM 37.4 °F 29.3 °F 37.4 °F 100% 29.19 in 3.0 mi SSE 12.7 mph 21.9 mph N/A   Drizzle
5:28 AM 35.6 °F 25.9 °F 35.6 °F 100% 29.20 in 4.0 mi SW 16.1 mph 25.3 mph N/A   Drizzle
5:48 AM 32.0 °F 22.5 °F 32.0 °F 100% 29.21 in 5.0 mi SSW 12.7 mph 24.2 mph N/A Rain Rain
6:08 AM 30.2 °F 20.2 °F 30.2 °F 100% 29.21 in 7.0 mi SW 12.7 mph 19.6 mph N/A   Overcast
6:28 AM 30.2 °F 19.3 °F 30.2 °F 100% 29.21 in 2.5 mi SSW 15.0 mph 20.7 mph N/A Snow Light Snow
6:48 AM 30.2 °F 21.3 °F 30.2 °F 100% 29.20 in 1.8 mi SSW 10.4 mph 18.4 mph N/A Snow Light Snow
7:07 AM 30.2 °F 21.3 °F 30.2 °F 100% 29.20 in 4.0 mi SSW 10.4 mph 16.1 mph N/A   Overcast
7:28 AM 30.2 °F 22.6 °F 30.2 °F 100% 29.19 in 5.0 mi South 8.1 mph - N/A Snow Light Snow
7:48 AM 30.2 °F 22.6 °F 30.2 °F 100% 29.18 in 1.5 mi South 8.1 mph - N/A Snow Light Snow
8:09 AM 30.2 °F 21.3 °F 30.2 °F 100% 29.18 in 1.8 mi South 10.4 mph 16.1 mph N/A Snow Light Snow
8:28 AM 30.2 °F 21.9 °F 30.2 °F 100% 29.17 in 2.0 mi South 9.2 mph - N/A Snow Light Snow
8:48 AM 30.2 °F 21.9 °F 30.2 °F 100% 29.17 in 2.0 mi South 9.2 mph - N/A Snow Light Snow
9:08 AM 30.2 °F 23.4 °F 30.2 °F 100% 29.16 in 1.8 mi SSE 6.9 mph - N/A Snow Light Snow
9:28 AM 30.2 °F 25.4 °F 30.2 °F 100% 29.16 in 1.8 mi South 4.6 mph - N/A Snow Light Snow
9:48 AM 30.2 °F 26.7 °F 30.2 °F 100% 29.16 in 1.2 mi South 3.5 mph - N/A   Overcast
10:08 AM 30.2 °F - 30.2 °F 100% 29.16 in 1.0 mi Calm Calm - N/A   Overcast
10:28 AM 30.2 °F - 30.2 °F 100% 29.17 in 1.2 mi Calm Calm - N/A   Overcast
10:48 AM 32.0 °F 28.7 °F 32.0 °F 100% 29.18 in 1.5 mi West 3.5 mph - N/A Snow Light Snow
11:28 AM 32.0 °F 25.6 °F 32.0 °F 100% 29.20 in 5.0 mi NW 6.9 mph - N/A Snow Light Snow
11:48 AM 32.0 °F 25.6 °F 32.0 °F 100% 29.21 in 10.0 mi NW 6.9 mph - N/A   Overcast
12:08 PM 33.8 °F 27.0 °F 33.8 °F 100% 29.22 in 10.0 mi NW 8.1 mph - N/A   Overcast
12:29 PM 33.8 °F 27.7 °F 33.8 °F 100% 29.23 in 10.0 mi WNW 6.9 mph - N/A   Overcast
12:48 PM 33.8 °F 27.0 °F 33.8 °F 100% 29.24 in 10.0 mi NW 8.1 mph - N/A   Overcast
1:08 PM 33.8 °F 25.8 °F 33.8 °F 100% 29.25 in 10.0 mi WNW 10.4 mph - N/A   Overcast
1:28 PM 33.8 °F 27.0 °F 33.8 °F 100% 29.27 in 10.0 mi NW 8.1 mph - N/A   Overcast
1:48 PM 33.8 °F 28.6 °F 33.8 °F 100% 29.29 in 10.0 mi NW 5.8 mph - N/A   Overcast
2:08 PM 33.8 °F 29.6 °F 33.8 °F 100% 29.30 in 10.0 mi NW 4.6 mph - N/A   Overcast
2:28 PM 33.8 °F 27.0 °F 33.8 °F 100% 29.32 in 5.0 mi NW 8.1 mph 17.3 mph N/A   Light Drizzle
2:48 PM 33.8 °F 26.4 °F 33.8 °F 100% 29.34 in 1.8 mi WNW 9.2 mph - N/A   Drizzle
3:08 PM 32.0 °F 24.8 °F 32.0 °F 100% 29.36 in 3.0 mi WNW 8.1 mph - N/A   Overcast
3:28 PM 32.0 °F 25.6 °F 32.0 °F 100% 29.37 in 5.0 mi WNW 6.9 mph - N/A   Overcast
3:48 PM 32.0 °F 24.2 °F 32.0 °F 100% 29.40 in 2.5 mi NW 9.2 mph - N/A   Overcast
4:09 PM 32.0 °F 25.6 °F 32.0 °F 100% 29.42 in 2.5 mi NW 6.9 mph - N/A   Overcast
4:28 PM 32.0 °F 25.6 °F 32.0 °F 100% 29.44 in 3.0 mi WNW 6.9 mph - N/A   Overcast
4:48 PM 32.0 °F 23.6 °F 32.0 °F 100% 29.45 in 7.0 mi NW 10.4 mph 18.4 mph N/A   Overcast
5:08 PM 32.0 °F 22.5 °F 32.0 °F 100% 29.46 in 7.0 mi NW 12.7 mph 18.4 mph N/A   Overcast
5:28 PM 32.0 °F 22.5 °F 32.0 °F 100% 29.48 in 7.0 mi NW 12.7 mph 18.4 mph N/A   Overcast
5:48 PM 32.0 °F 23.0 °F 32.0 °F 100% 29.50 in 7.0 mi WNW 11.5 mph 17.3 mph N/A   Overcast
6:08 PM 32.0 °F 23.6 °F 32.0 °F 100% 29.52 in 10.0 mi WNW 10.4 mph 18.4 mph N/A   Overcast
6:28 PM 32.0 °F 23.6 °F 32.0 °F 100% 29.54 in 10.0 mi WNW 10.4 mph 19.6 mph N/A   Overcast
6:48 PM 32.0 °F 24.2 °F 32.0 °F 100% 29.56 in 7.0 mi WNW 9.2 mph 16.1 mph N/A   Overcast
7:08 PM 32.0 °F 23.6 °F 32.0 °F 100% 29.57 in 7.0 mi WNW 10.4 mph 16.1 mph N/A   Overcast
7:27 PM 30.2 °F 20.2 °F 30.2 °F 100% 29.58 in 10.0 mi WNW 12.7 mph 18.4 mph N/A   Overcast
7:48 PM 30.2 °F 20.8 °F 30.2 °F 100% 29.60 in 10.0 mi WNW 11.5 mph 19.6 mph N/A   Overcast
8:08 PM 30.2 °F 19.8 °F 30.2 °F 100% 29.61 in 7.0 mi WNW 13.8 mph 19.6 mph N/A   Overcast
8:27 PM 30.2 °F 20.8 °F 30.2 °F 100% 29.63 in 7.0 mi WNW 11.5 mph 20.7 mph N/A   Overcast
8:48 PM 30.2 °F 21.9 °F 30.2 °F 100% 29.64 in 7.0 mi WNW 9.2 mph 18.4 mph N/A   Overcast
9:08 PM 30.2 °F 20.8 °F 30.2 °F 100% 29.64 in 5.0 mi NW 11.5 mph 19.6 mph N/A   Overcast
9:27 PM 30.2 °F 20.8 °F 30.2 °F 100% 29.66 in 5.0 mi WNW 11.5 mph 16.1 mph N/A   Overcast
9:48 PM 30.2 °F 21.9 °F 30.2 °F 100% 29.67 in 5.0 mi NW 9.2 mph 17.3 mph N/A   Overcast
10:08 PM 30.2 °F 20.8 °F 30.2 °F 100% 29.67 in 4.0 mi WNW 11.5 mph 19.6 mph N/A   Overcast
10:27 PM 30.2 °F 21.3 °F 30.2 °F 100% 29.68 in 4.0 mi NW 10.4 mph 19.6 mph N/A   Overcast
10:48 PM 30.2 °F 21.9 °F 30.2 °F 100% 29.68 in 4.0 mi WNW 9.2 mph 18.4 mph N/A   Overcast
11:08 PM 30.2 °F 20.8 °F 30.2 °F 100% 29.69 in 7.0 mi WNW 11.5 mph 16.1 mph N/A   Overcast
11:28 PM 30.2 °F 20.8 °F 30.2 °F 100% 29.69 in 10.0 mi NW 11.5 mph 18.4 mph N/A   Overcast
11:48 PM 30.2 °F 23.4 °F 30.2 °F 100% 29.69 in 7.0 mi NW 6.9 mph - N/A   Overcast